Simultaneous Nadir Overpasses (SNOs) Predictions

Prediction of SNOs between METOP-B and TERRA Satellite Orbit:

Table of predicted SNOs for the next 14.0 days since TLE Epoch: 1/12/2013
Index Date (METOP-B) Time (METOP-B) Lat,Lon (METOP-B) SZA (METOP-B ) Date (TERRA) Time (TERRA) Lat,Lon (TERRA) SZA (TERRA ) Distance(km) Time Diff (sec)
1 01/13/2013 06:58:40 81.27, 121.81 105.04 01/13/2013 06:59:22 81.27, 121.79 105.05 0.32 42
2 01/13/2013 07:49:19 -81.28, -70.12 74.89 01/13/2013 07:48:48 -81.28, -70.28 74.92 2.75 31
3 01/16/2013 02:33:05 81.27,-171.75 104.51 01/16/2013 02:33:37 81.28,-171.58 104.55 3.12 32
4 01/16/2013 03:23:45 -81.27, -4.10 75.46 01/16/2013 03:23:04 -81.27, -4.00 75.47 1.57 41
5 01/18/2013 22:07:29 81.28,-104.94 103.97 01/18/2013 22:07:52 81.28,-105.10 103.97 2.70 23
6 01/
